Weather History for K9V9 - February, 2014

Change the Weather History Date:

Wednesday, February 5, 2014

  Actual Average (KICR) Record (KICR)
Temperature  
Mean Temperature -2 °F 25 °F  
Max Temperature 6 °F 36 °F - ()
Min Temperature -9 °F 15 °F - ()
Degree Days  
Heating Degree Days 66 40  
Month to date heating degree days 200  
Since 1 July heating degree days 4155  
Cooling Degree Days 0 0  
Month to date cooling degree days 0  
Year to date cooling degree days 0  
Moisture  
Dew Point -9 °F    
Average Humidity 68    
Maximum Humidity 83    
Minimum Humidity 53    
Precipitation  
Precipitation 0.01 in 0.02 in - ()
Month to date precipitation 0.09  
Year to date precipitation 0.34  
Sea Level Pressure  
Sea Level Pressure 30.75 in    
Wind  
Wind Speed 11 mph (NW)    
Max Wind Speed 17 mph    
Max Gust Speed 29 mph    
T = Trace of Precipitation, MM = Missing Value Source: NWS Daily Summary

Daily Weather History Graph

Daily Weather History Graph

Search for Another Location

Airport or City:

Trip Planner

Search our weather history database for the weather conditions in past years. The results will help you decide how hot, cold, wet, or windy it might be!

Date:

Astronomy

Feb. 05, 2014 Rise Set
Actual Time 7:49 AM CST 5:53 PM CST
Civil Twilight 7:19 AM CST 6:24 PM CST
Nautical Twilight 6:45 AM CST 6:58 PM CST
Astronomical Twilight 6:11 AM CST 7:31 PM CST
Moon 10:51 AM CST (2/5) 12:01 AM CST (2/5)
Length of Visible Light 11h 04m
Length of Day
10h 04m
Waxing Crescent, 39% of the Moon is Illuminated
Feb 5
Waxing Crescent
Feb 6
First Quarter
Feb 14
Full
Feb 22
Last Quarter
Mar 1
New

Hourly Weather History & Observations

Time (CST) Temp. Windchill Dew Point Humidity Pressure Visibility Wind Dir Wind Speed Gust Speed Precip Events Conditions
12:52 AM 3.9 °F -13.0 °F -2.0 °F 76% 30.69 in - North 12.7 mph - N/A   Unknown
1:52 AM 3.0 °F -14.1 °F -4.0 °F 73% 30.70 in - North 12.7 mph - 0.01 in   Unknown
2:52 AM 1.9 °F -14.7 °F -6.0 °F 69% 30.72 in - North 11.5 mph - N/A   Unknown
3:52 AM 1.0 °F -12.9 °F -7.1 °F 69% 30.72 in - North 8.1 mph - N/A   Unknown
4:52 AM -0.0 °F -11.6 °F -8.0 °F 69% 30.74 in - NW 5.8 mph - N/A   Unknown
5:52 AM -2.0 °F -16.6 °F -9.0 °F 72% 30.75 in - NW 8.1 mph - N/A   Unknown
6:52 AM -8.0 °F -19.2 °F -11.9 °F 83% 30.76 in - NW 4.6 mph - N/A   Unknown
7:52 AM -9.0 °F -25.2 °F -14.1 °F 79% 30.77 in - NW 8.1 mph - N/A   Unknown
8:52 AM -6.0 °F -18.6 °F -11.9 °F 75% 30.78 in - WNW 5.8 mph - N/A   Unknown
9:52 AM -2.0 °F -17.7 °F -9.9 °F 69% 30.78 in - NW 9.2 mph - N/A   Unknown
10:52 AM 1.9 °F -16.2 °F -7.1 °F 66% 30.78 in - NW 13.8 mph - N/A   Unknown
11:52 AM 3.9 °F -13.7 °F -7.1 °F 60% 30.78 in - NNW 13.8 mph 23.0 mph N/A   Unknown
12:52 PM 5.0 °F -14.2 °F -8.0 °F 55% 30.75 in - NNW 17.3 mph 24.2 mph N/A   Unknown
1:52 PM 6.1 °F -11.6 °F -8.0 °F 53% 30.73 in - NNW 15.0 mph 24.2 mph N/A   Unknown
2:52 PM 5.0 °F -14.2 °F -7.1 °F 58% 30.73 in - NW 17.3 mph 28.8 mph N/A   Unknown
3:52 PM 6.1 °F -12.8 °F -7.1 °F 55% 30.73 in - NW 17.3 mph 23.0 mph N/A   Unknown
4:52 PM 3.9 °F -14.3 °F -7.1 °F 60% 30.74 in - NW 15.0 mph - N/A   Unknown
5:52 PM 1.9 °F -15.5 °F -9.9 °F 58% 30.75 in - NW 12.7 mph - N/A   Unknown
6:52 PM -2.9 °F -16.5 °F -11.9 °F 65% 30.77 in - WNW 6.9 mph - N/A   Unknown
7:52 PM -4.0 °F -19.0 °F -11.9 °F 69% 30.76 in - WNW 8.1 mph - N/A   Unknown
8:52 PM -7.1 °F -22.8 °F -14.1 °F 72% 30.76 in - WNW 8.1 mph - N/A   Unknown
9:52 PM -7.1 °F -25.9 °F -14.1 °F 72% 30.74 in - WNW 11.5 mph - N/A   Unknown
10:52 PM -8.0 °F -26.1 °F -15.0 °F 71% 30.73 in - WNW 10.4 mph - N/A   Unknown
11:52 PM -7.1 °F -25.0 °F -14.1 °F 72% 30.72 in - WNW 10.4 mph - N/A   Unknown